[[{"header":{"parameterUnit":"m.s-1","parameterCategory":1,"la1":30.2991,"la2":30.254,"lo1":-89.0895,"lo2":-89.0444,"dy":0.0017,"dx":0.0017,"nx":28,"ny":28,"refTime":"2023-08-02T09:00:00:Z","depth":0,"parameterNumber":2,"parameterNumberName":"U-component_of_WINDS"},"data":[0,0,0,0,0,0,0,0,0,0,0,0,0,0,0,0,0,0,0,0,0,0,0,0,0,0,0,0,0,0,0,0,0,0,0,0,0,0,0,0,0,0,0,0,0,0,0,0,0,0,0,0,0,0,0,0,0,0,-1.6428,-1.6429,0,-1.6502,-1.6503,-1.6504,-1.6503,-1.6502,-1.6501,-1.65,-1.6573,-1.6576,-1.6579,0,0,0,0,0,0,0,0,0,0,0,0,0,-1.6283,-1.6285,-1.6428,-1.6429,-1.643,-1.6502,-1.6503,-1.6504,-1.6503,-1.6502,-1.6501,-1.65,-1.6573,-1.6576,-1.6579,0,0,0,0,0,0,0,0,0,0,0,0,0,-1.635,-1.6286,-1.6428,-1.6438,-1.644,-1.6502,-1.6503,-1.6504,-1.6504,-1.6502,-1.6501,-1.6499,-1.6571,-1.6576,-1.658,-1.6635,0,0,-1.6593,-1.6595,0,0,0,0,0,0,0,0,-1.6346,-1.6355,-1.6436,-1.6437,-1.6439,-1.6492,-1.6479,-1.6548,-1.6504,-1.6479,-1.65,-1.6499,-1.6547,-1.6553,-1.6571,-1.6639,-1.6642,-1.6593,-1.6596,-1.6598,-1.6599,0,0,0,0,0,0,0,-1.6342,-1.6352,-1.6457,-1.6437,-1.6439,-1.6438,-1.6446,-1.6492,-1.652,-1.6481,-1.6481,-1.649,-1.6548,-1.6566,-1.6572,-1.6643,-1.6593,-1.6597,-1.66,-1.6601,-1.6761,-1.6763,0,0,0,0,0,0,-1.6335,-1.6348,-1.6455,-1.6459,-1.6388,-1.6442,-1.6451,-1.6477,-1.652,-1.6525,-1.6492,-1.649,-1.656,-1.6567,-1.6575,-1.6643,-1.6598,-1.6602,-1.6604,-1.6759,-1.6761,-1.6763,0,0,0,0,0,0,-1.6332,-1.6345,-1.6452,-1.6404,-1.6418,-1.6446,-1.6475,-1.6479,-1.6497,-1.6528,-1.6533,-1.6505,-1.6559,-1.6569,-1.6621,-1.6645,-1.6604,-1.6607,-1.6757,-1.676,-1.6762,-1.6779,0,0,0,0,0,0,-1.6328,-1.6344,-1.6365,-1.6404,-1.642,-1.6497,-1.6476,-1.6481,-1.6505,-1.6504,-1.6542,-1.6547,-1.6559,-1.6614,-1.6625,-1.665,-1.6611,-1.6755,-1.6758,-1.6761,-1.6776,-1.6782,-1.6786,0,0,0,0,0,-1.6323,-1.6366,-1.6367,-1.6379,-1.6448,-1.6498,-1.6507,-1.6521,-1.6507,-1.6529,-1.6549,-1.6546,-1.6641,-1.662,-1.6632,-1.6659,-1.6754,-1.6758,-1.6761,-1.6774,-1.6781,-1.6786,0,0,0,0,0,0,-1.6328,-1.6372,-1.6372,-1.643,-1.6461,-1.6498,-1.6526,-1.6527,-1.6562,-1.6559,-1.6573,-1.6582,-1.6634,-1.6652,-1.6627,-1.6715,-1.6696,-1.6702,-1.6701,-1.6708,-1.6713,-1.6707,-1.6614,0,0,0,0,0,-1.6336,-1.6374,-1.641,-1.6457,-1.6473,-1.6497,-1.6519,-1.6527,-1.6559,-1.6572,-1.6595,-1.6626,-1.6662,-1.6686,-1.6722,-1.6779,-1.6787,-1.6804,-1.6809,-1.6813,-1.6818,-1.685,-1.6857,-1.6776,-1.6775,-1.6775,0,0,-1.6353,-1.6381,-1.6404,-1.6459,-1.6484,-1.6522,-1.6508,-1.6549,-1.6577,-1.6578,-1.6628,-1.6647,-1.6681,-1.6736,-1.6762,-1.6753,-1.6843,-1.6818,-1.6821,-1.6824,-1.6854,-1.6862,-1.6869,-1.6778,-1.6778,-1.6777,0,0,-1.6402,-1.6428,-1.6471,-1.6496,-1.6534,-1.655,-1.6561,-1.6599,-1.6611,-1.6663,-1.6664,-1.6698,-1.6761,-1.6786,-1.6806,-1.6867,-1.6866,-1.6879,-1.6904,-1.6935,-1.6941,-1.6947,-1.6968,-1.6976,-1.6884,-1.6884,-1.6884,0,-1.6418,-1.6476,-1.6492,-1.6534,-1.6558,-1.6562,-1.6605,-1.6628,-1.6676,-1.6692,-1.6681,-1.6762,-1.6785,-1.6846,-1.6861,-1.6878,-1.689,-1.6873,-1.6939,-1.6945,-1.6951,-1.6971,-1.6979,-1.6885,-1.6885,-1.6885,-1.6885,0,-1.6493,-1.6534,-1.6564,-1.6611,-1.6638,-1.668,-1.6702,-1.6728,-1.6734,-1.6751,-1.6803,-1.6832,-1.6873,-1.6889,-1.6894,-1.6951,-1.6944,-1.6937,-1.6917,-1.696,-1.6979,-1.6987,-1.6887,-1.6886,-1.6886,-1.6886,0,0,-1.6547,-1.6603,-1.6614,-1.6635,-1.6679,-1.671,-1.6752,-1.6794,-1.6816,-1.6849,-1.6884,-1.6938,-1.6932,-1.6956,-1.6965,-1.6992,-1.7038,-1.6981,-1.6982,-1.699,-1.7101,-1.7105,-1.7114,-1.7038,-1.7039,-1.704,-1.7098,0,-1.66,-1.6676,-1.6692,-1.6758,-1.6795,-1.68,-1.6837,-1.6867,-1.6884,-1.6918,-1.6937,-1.6975,-1.6964,-1.6979,-1.7006,-1.7026,-1.706,-1.7023,-1.7069,-1.7071,-1.7059,-1.7124,-1.7129,-1.7181,-1.7105,-1.7107,-1.7108,0,-1.6673,-1.6709,-1.6778,-1.6817,-1.6833,-1.6866,-1.6906,-1.6939,-1.6973,-1.6984,-1.7011,-1.7018,-1.7061,-1.7041,-1.7101,-1.7075,-1.7095,-1.7108,-1.7111,-1.7114,-1.7091,-1.7129,-1.7198,-1.7206,-1.712,-1.7119,-1.7118,0,-1.6704,-1.677,-1.682,-1.6838,-1.6885,-1.6908,-1.6928,-1.6961,-1.6986,-1.7021,-1.7037,-1.7076,-1.7097,-1.7127,-1.7144,-1.7127,-1.7202,-1.7183,-1.7211,-1.7211,-1.7225,-1.7224,-1.7298,-1.724,-1.724,-1.724,-1.724,0,-1.6761,-1.6803,-1.6835,-1.6865,-1.6913,-1.6931,-1.6977,-1.6997,-1.7026,-1.706,-1.7067,-1.7099,-1.712,-1.7154,-1.7167,-1.7215,-1.7224,-1.7233,-1.7236,-1.7232,-1.7231,-1.7245,-1.7241,-1.7242,-1.7242,-1.7241,-1.7241,0,-1.6803,-1.6826,-1.6881,-1.6921,-1.6933,-1.6966,-1.7,-1.7029,-1.7048,-1.7091,-1.7102,-1.713,-1.7171,-1.7191,-1.7242,-1.7251,-1.7304,-1.7305,-1.7293,-1.7293,-1.732,-1.7317,-1.7405,-1.7417,-1.7352,-1.7353,-1.7353,0,-1.6838,-1.687,-1.6915,-1.6939,-1.696,-1.6999,-1.7024,-1.7044,-1.707,-1.7112,-1.7137,-1.7178,-1.7213,-1.7278,-1.7302,-1.7341,-1.7342,-1.7371,-1.7348,-1.7343,-1.7342,-1.7339,-1.7342,-1.7374,-1.7375,-1.7375,-1.7376,0,-1.6896,-1.6906,-1.6943,-1.6985,-1.7016,-1.7049,-1.7081,-1.71,-1.7125,-1.7154,-1.7197,-1.7224,-1.7276,-1.7317,-1.7358,-1.7378,-1.7381,-1.7383,-1.7391,-1.7387,-1.7378,-1.7382,-1.7302,-1.738,-1.738,-1.738,-1.7379,-1.7379,-1.6935,-1.6964,-1.7001,-1.7042,-1.7069,-1.71,-1.713,-1.7152,-1.7189,-1.7234,-1.7243,-1.7288,-1.7322,-1.7378,-1.74,-1.7435,-1.7428,-1.7441,-1.7443,-1.7446,-1.7447,-1.7374,-1.7442,-1.7442,-1.7442,-1.7442,-1.7442,0,-1.6993,-1.7017,-1.7055,-1.7101,-1.7134,-1.7135,-1.7172,-1.7198,-1.7239,-1.7271,-1.7305,-1.7354,-1.7395,-1.7423,-1.7464,-1.7487,-1.7489,-1.7496,-1.7494,-1.7499,-1.7451,-1.7439,-1.7494,-1.7494,-1.7494,-1.7494,-1.7494,-1.7494,-1.7027,-1.7077,-1.7092,-1.7155,-1.7179,-1.7224,-1.7245,-1.7273,-1.7299,-1.7354,-1.7388,-1.7407,-1.7437,-1.7481,-1.7517,-1.7525,-1.7539,-1.7547,-1.7553,-1.7508,-1.7502,-1.7497,-1.7486,-1.755,-1.755,-1.7598,-1.7599,-1.7599]},{"header":{"parameterUnit":"m.s-1","parameterCategory":1,"la1":30.2991,"la2":30.254,"lo1":-89.0895,"lo2":-89.0444,"dy":0.0017,"dx":0.0017,"nx":28,"ny":28,"refTime":"2023-08-02T09:00:00:Z","depth":0,"parameterNumber":3,"parameterNumberName":"V-component_of_WINDS"},"data":[0,0,0,0,0,0,0,0,0,0,0,0,0,0,0,0,0,0,0,0,0,0,0,0,0,0,0,0,0,0,0,0,0,0,0,0,0,0,0,0,0,0,0,0,0,0,0,0,0,0,0,0,0,0,0,0,0,0,-2.1146,-2.1146,0,-2.1215,-2.1215,-2.1216,-2.1204,-2.1203,-2.1202,-2.1201,-2.127,-2.1273,-2.1276,0,0,0,0,0,0,0,0,0,0,0,0,0,-2.1002,-2.1004,-2.1146,-2.1146,-2.1147,-2.1215,-2.1215,-2.1216,-2.1205,-2.1203,-2.1202,-2.12,-2.1269,-2.1272,-2.1276,0,0,0,0,0,0,0,0,0,0,0,0,0,-2.1067,-2.1005,-2.1145,-2.115,-2.1151,-2.1214,-2.1215,-2.1217,-2.1205,-2.1203,-2.1201,-2.12,-2.1268,-2.1272,-2.1276,-2.134,0,0,-2.129,-2.1292,0,0,0,0,0,0,0,0,-2.1063,-2.1072,-2.1148,-2.1149,-2.1151,-2.1199,-2.119,-2.1258,-2.1205,-2.1184,-2.1201,-2.1199,-2.1248,-2.1254,-2.127,-2.1343,-2.1346,-2.129,-2.1293,-2.1295,-2.1296,0,0,0,0,0,0,0,-2.1059,-2.1069,-2.1173,-2.1149,-2.1151,-2.1147,-2.1155,-2.1203,-2.1225,-2.1186,-2.1185,-2.1194,-2.1248,-2.1266,-2.1272,-2.1347,-2.129,-2.1294,-2.1297,-2.1299,-2.1475,-2.1477,0,0,0,0,0,0,-2.1053,-2.1065,-2.1171,-2.1175,-2.1102,-2.1151,-2.1159,-2.1185,-2.1225,-2.1229,-2.1195,-2.1193,-2.126,-2.1267,-2.1274,-2.1351,-2.1295,-2.1299,-2.1302,-2.1473,-2.1475,-2.1477,0,0,0,0,0,0,-2.105,-2.1063,-2.1168,-2.112,-2.1133,-2.1156,-2.1185,-2.1188,-2.1206,-2.1232,-2.1235,-2.121,-2.1258,-2.1268,-2.1324,-2.1353,-2.1301,-2.1305,-2.147,-2.1473,-2.1476,-2.1506,0,0,0,0,0,0,-2.1046,-2.1062,-2.1086,-2.1121,-2.1136,-2.1217,-2.1187,-2.119,-2.1214,-2.1211,-2.1246,-2.125,-2.1258,-2.1317,-2.1328,-2.1359,-2.1309,-2.1468,-2.1472,-2.1475,-2.1502,-2.1509,-2.1515,0,0,0,0,0,-2.1041,-2.1092,-2.1088,-2.1101,-2.1167,-2.1219,-2.1227,-2.1235,-2.1216,-2.1241,-2.1257,-2.1249,-2.1348,-2.1323,-2.1335,-2.1368,-2.1466,-2.1471,-2.1475,-2.1499,-2.1508,-2.1515,0,0,0,0,0,0,-2.106,-2.1096,-2.1092,-2.1156,-2.1184,-2.1216,-2.1248,-2.1244,-2.1278,-2.1274,-2.1282,-2.129,-2.1346,-2.1362,-2.1333,-2.1431,-2.1404,-2.1412,-2.1418,-2.1427,-2.1434,-2.1429,-2.1312,0,0,0,0,0,-2.1072,-2.1111,-2.114,-2.1193,-2.1208,-2.1226,-2.1248,-2.1252,-2.1281,-2.1293,-2.1313,-2.1342,-2.1379,-2.1404,-2.144,-2.1504,-2.1511,-2.1532,-2.1539,-2.1544,-2.155,-2.1585,-2.1595,-2.1492,-2.1492,-2.1492,0,0,-2.1096,-2.1121,-2.1145,-2.1198,-2.122,-2.126,-2.1236,-2.1279,-2.1308,-2.1299,-2.1353,-2.1369,-2.1401,-2.1461,-2.1489,-2.1476,-2.158,-2.155,-2.1554,-2.1557,-2.1591,-2.1601,-2.1609,-2.1495,-2.1495,-2.1494,0,0,-2.1161,-2.1184,-2.1231,-2.1254,-2.1288,-2.1299,-2.131,-2.1343,-2.1354,-2.1408,-2.1402,-2.1437,-2.1501,-2.1524,-2.1545,-2.1618,-2.1611,-2.1629,-2.1664,-2.1698,-2.1706,-2.1713,-2.1739,-2.1749,-2.1635,-2.1635,-2.1635,0,-2.1187,-2.1248,-2.1255,-2.1299,-2.1322,-2.1316,-2.1363,-2.1385,-2.1429,-2.1445,-2.143,-2.1511,-2.1532,-2.1597,-2.1615,-2.1632,-2.1644,-2.1625,-2.1704,-2.1711,-2.1718,-2.1743,-2.1753,-2.1637,-2.1637,-2.1637,-2.1636,0,-2.1278,-2.132,-2.1353,-2.1396,-2.1423,-2.1469,-2.1482,-2.1508,-2.1509,-2.1522,-2.1577,-2.1602,-2.1643,-2.1659,-2.166,-2.1724,-2.1715,-2.1702,-2.1676,-2.173,-2.1754,-2.1763,-2.164,-2.1639,-2.1638,-2.1638,0,0,-2.1358,-2.1404,-2.1416,-2.1436,-2.1473,-2.1505,-2.155,-2.159,-2.1612,-2.1643,-2.168,-2.1734,-2.1723,-2.1745,-2.1749,-2.1779,-2.1835,-2.1762,-2.1763,-2.1775,-2.1907,-2.1917,-2.1928,-2.1831,-2.1832,-2.1834,-2.1905,0,-2.1426,-2.1506,-2.1514,-2.1585,-2.1623,-2.1618,-2.1656,-2.1683,-2.1696,-2.173,-2.1743,-2.1782,-2.1763,-2.1777,-2.1806,-2.1822,-2.1862,-2.1817,-2.1865,-2.1867,-2.1858,-2.1941,-2.1951,-2.2017,-2.1914,-2.1915,-2.1917,0,-2.1518,-2.1551,-2.1626,-2.1658,-2.1674,-2.1709,-2.1746,-2.1779,-2.1809,-2.1816,-2.1841,-2.1841,-2.1886,-2.1857,-2.1919,-2.1889,-2.1909,-2.1919,-2.1922,-2.1927,-2.1895,-2.1948,-2.2038,-2.2048,-2.1931,-2.193,-2.1929,0,-2.1569,-2.1632,-2.1685,-2.1702,-2.174,-2.1765,-2.1782,-2.181,-2.1833,-2.1865,-2.1881,-2.1918,-2.1938,-2.1966,-2.1975,-2.1954,-2.2037,-2.201,-2.2044,-2.2044,-2.2063,-2.2061,-2.2157,-2.2075,-2.2075,-2.2074,-2.2074,0,-2.1645,-2.1691,-2.1709,-2.1742,-2.1793,-2.1801,-2.1851,-2.1866,-2.1891,-2.1926,-2.1923,-2.1956,-2.1966,-2.2001,-2.2008,-2.2058,-2.2067,-2.2074,-2.2075,-2.2075,-2.2074,-2.2088,-2.2084,-2.2077,-2.2076,-2.2076,-2.2075,0,-2.1711,-2.1725,-2.1782,-2.1814,-2.1822,-2.1859,-2.1885,-2.1916,-2.1928,-2.1973,-2.1984,-2.2002,-2.2043,-2.2054,-2.2103,-2.2107,-2.2167,-2.2164,-2.2157,-2.2157,-2.2191,-2.2188,-2.23,-2.2315,-2.2222,-2.2223,-2.2224,0,-2.1759,-2.1795,-2.183,-2.1853,-2.1871,-2.1909,-2.1933,-2.1942,-2.1967,-2.2003,-2.203,-2.207,-2.2103,-2.2167,-2.2184,-2.2221,-2.2219,-2.2256,-2.2225,-2.2223,-2.222,-2.2219,-2.2222,-2.2262,-2.2263,-2.2264,-2.2265,0,-2.1843,-2.1848,-2.1884,-2.1921,-2.195,-2.198,-2.2009,-2.2028,-2.2041,-2.2069,-2.2111,-2.2136,-2.2185,-2.2225,-2.2262,-2.2279,-2.2274,-2.2274,-2.2284,-2.2284,-2.2279,-2.2283,-2.2174,-2.2272,-2.2271,-2.227,-2.227,-2.227,-2.1902,-2.1933,-2.1963,-2.2002,-2.2025,-2.2052,-2.2083,-2.2098,-2.2133,-2.2175,-2.2177,-2.2222,-2.225,-2.23,-2.2318,-2.2353,-2.2342,-2.2357,-2.236,-2.2364,-2.2367,-2.2273,-2.236,-2.2359,-2.2359,-2.2359,-2.2359,0,-2.1986,-2.2005,-2.2041,-2.2082,-2.2112,-2.2105,-2.2137,-2.2163,-2.2203,-2.2229,-2.2261,-2.2309,-2.2347,-2.2367,-2.2405,-2.2429,-2.2428,-2.2439,-2.2437,-2.2441,-2.2374,-2.2362,-2.2439,-2.2439,-2.2439,-2.2439,-2.2439,-2.2439,-2.2034,-2.2086,-2.2095,-2.2158,-2.2176,-2.2221,-2.2239,-2.2264,-2.2285,-2.2338,-2.237,-2.2383,-2.2407,-2.2447,-2.2481,-2.2486,-2.2501,-2.2513,-2.2517,-2.2454,-2.2446,-2.2438,-2.2427,-2.2516,-2.2516,-2.2581,-2.2581,-2.2582]}]]